When you browse on this site, cookies collect data to enhance your experience and personalize the content and advertising you see.
Visit our Privacy Policy to learn more. By continuing to use the site, you agree to this use of cookies and data.
  • In Hungary
  • List of Countries
  • For 7 days
  • Water Temperature
  • Weather Map
  • News
  • Weather Widgets
  • user-avatar
    Login

    Hourly Weather Chrudim

    Today, 19 February, Wednesday

    Time Temperature Precipitation Wind Pressure Humidity
    00:00 +1°C° 0 mm 4 mps 743 mmHg 82%
    01:00 +1°C° 0 mm 4 mps 743 mmHg 84%
    02:00 +1°C° 0 mm 4 mps 742 mmHg 83%
    03:00 +1°C° 0 mm 4 mps 742 mmHg 82%
    04:00 +1°C° 0 mm 4 mps 741 mmHg 81%
    05:00 +1°C° 0 mm 4 mps 741 mmHg 82%
    06:00 +1°C° 0 mm 4 mps 740 mmHg 82%
    07:00 0°C° 0 mm 4 mps 740 mmHg 83%
    08:00 +2°C° 0 mm 5 mps 740 mmHg 78%
    09:00 +3°C° 0 mm 6 mps 739 mmHg 74%
    10:00 +4°C° 0 mm 7 mps 739 mmHg 69%
    11:00 +4°C° 0.1 mm 7 mps 738 mmHg 72%
    12:00 +4°C° 0.1 mm 7 mps 738 mmHg 76%
    13:00 +4°C° 0.1 mm 7 mps 738 mmHg 79%
    14:00 +3°C° 0.2 mm 7 mps 738 mmHg 79%
    15:00 +3°C° 0.2 mm 7 mps 738 mmHg 79%
    16:00 +3°C° 0.2 mm 7 mps 738 mmHg 79%
    17:00 +2°C° 0.1 mm 6 mps 738 mmHg 79%
    18:00 +2°C° 0.1 mm 5 mps 739 mmHg 80%
    19:00 +1°C° 0.1 mm 4 mps 740 mmHg 81%
    20:00 +1°C° 0 mm 5 mps 740 mmHg 80%
    21:00 +1°C° 0 mm 5 mps 741 mmHg 80%
    22:00 +1°C° 0 mm 5 mps 742 mmHg 80%
    23:00 0°C° 0 mm 5 mps 742 mmHg 81%

    Tomorrow, 20 February, Thursday

    Time Temperature Precipitation Wind Pressure Humidity
    00:00 0°C° 0 mm 5 mps 742 mmHg 81%
    01:00 0°C° 0 mm 5 mps 742 mmHg 82%
    02:00 -1°C° 0 mm 5 mps 742 mmHg 83%
    03:00 -1°C° 0 mm 5 mps 742 mmHg 83%
    04:00 -1°C° 0 mm 5 mps 743 mmHg 84%
    05:00 -2°C° 0 mm 4 mps 743 mmHg 85%
    06:00 -1°C° 0 mm 3 mps 743 mmHg 87%
    07:00 -1°C° 0 mm 3 mps 743 mmHg 89%
    08:00 0°C° 0 mm 3 mps 743 mmHg 84%
    09:00 +1°C° 0 mm 3 mps 743 mmHg 80%
    10:00 +2°C° 0 mm 3 mps 743 mmHg 75%
    11:00 +3°C° 0 mm 3 mps 743 mmHg 71%
    12:00 +4°C° 0 mm 3 mps 743 mmHg 67%
    13:00 +5°C° 0 mm 2 mps 743 mmHg 63%
    14:00 +6°C° 0 mm 2 mps 742 mmHg 66%
    15:00 +6°C° 0 mm 2 mps 742 mmHg 68%
    16:00 +6°C° 0 mm 2 mps 742 mmHg 70%
    17:00 +5°C° 0 mm 2 mps 742 mmHg 75%
    18:00 +3°C° 0 mm 3 mps 741 mmHg 80%
    19:00 +2°C° 0 mm 3 mps 741 mmHg 84%
    20:00 +2°C° 0 mm 3 mps 741 mmHg 83%
    21:00 +3°C° 0 mm 3 mps 741 mmHg 83%
    22:00 +3°C° 0 mm 3 mps 740 mmHg 82%
    23:00 +3°C° 0 mm 4 mps 740 mmHg 80%

    Day after tomorrow, 21 February, Friday

    Time Temperature Precipitation Wind Pressure Humidity
    00:00 +3°C° 0 mm 4 mps 740 mmHg 78%
    01:00 +3°C° 0 mm 5 mps 740 mmHg 76%
    02:00 +3°C° 0 mm 6 mps 739 mmHg 78%
    03:00 +3°C° 0 mm 6 mps 739 mmHg 80%
    04:00 +3°C° 0 mm 7 mps 739 mmHg 81%
    05:00 +2°C° 0.3 mm 7 mps 739 mmHg 79%
    06:00 +1°C° 0.3 mm 8 mps 740 mmHg 76%
    07:00 0°C° 0.3 mm 8 mps 741 mmHg 73%
    14:00 +3°C° 0.1 mm 7 mps 746 mmHg 59%
    15:00 +3°C° 0.1 mm 7 mps 746 mmHg 60%
    16:00 +3°C° 0.1 mm 7 mps 746 mmHg 61%
    17:00 +2°C° 0 mm 6 mps 747 mmHg 65%
    18:00 +1°C° 0 mm 5 mps 748 mmHg 69%
    19:00 0°C° 0 mm 4 mps 748 mmHg 72%
    20:00 0°C° 0 mm 4 mps 748 mmHg 74%
    21:00 +1°C° 0 mm 3 mps 748 mmHg 76%
    22:00 0°C° 0 mm 3 mps 748 mmHg 78%
    23:00 0°C° 0 mm 3 mps 748 mmHg 78%

    22 February, Saturday

    Time Temperature Precipitation Wind Pressure Humidity
    00:00 0°C° 0 mm 3 mps 748 mmHg 78%
    01:00 0°C° 0 mm 3 mps 748 mmHg 78%
    02:00 +1°C° 0 mm 3 mps 748 mmHg 78%
    03:00 +1°C° 0 mm 3 mps 748 mmHg 78%
    04:00 +1°C° 0 mm 3 mps 748 mmHg 78%
    05:00 +1°C° 0 mm 3 mps 748 mmHg 79%
    06:00 +1°C° 0 mm 3 mps 747 mmHg 79%
    07:00 0°C° 0 mm 3 mps 747 mmHg 80%
    08:00 +1°C° 0 mm 4 mps 747 mmHg 74%
    09:00 +3°C° 0 mm 4 mps 747 mmHg 68%
    10:00 +3°C° 0 mm 5 mps 747 mmHg 62%
    11:00 +5°C° 0 mm 5 mps 746 mmHg 58%
    12:00 +6°C° 0 mm 5 mps 746 mmHg 54%
    13:00 +8°C° 0 mm 5 mps 746 mmHg 50%
    14:00 +8°C° 0 mm 5 mps 745 mmHg 50%
    15:00 +8°C° 0 mm 4 mps 744 mmHg 51%
    16:00 +8°C° 0 mm 4 mps 744 mmHg 51%
    17:00 +7°C° 0 mm 4 mps 744 mmHg 54%
    18:00 +6°C° 0 mm 4 mps 744 mmHg 57%
    19:00 +5°C° 0 mm 4 mps 744 mmHg 60%
    20:00 +5°C° 0 mm 4 mps 744 mmHg 60%
    21:00 +6°C° 0 mm 4 mps 744 mmHg 59%
    22:00 +6°C° 0 mm 4 mps 744 mmHg 59%
    23:00 +6°C° 0 mm 5 mps 744 mmHg 61%

    23 February, Sunday

    Time Temperature Precipitation Wind Pressure Humidity
    00:00 +5°C° 0 mm 6 mps 744 mmHg 63%
    01:00 +5°C° 0 mm 7 mps 744 mmHg 65%
    02:00 +5°C° 0 mm 7 mps 743 mmHg 68%
    03:00 +5°C° 0 mm 7 mps 743 mmHg 71%
    04:00 +5°C° 0 mm 7 mps 743 mmHg 74%
    05:00 +5°C° 0.2 mm 7 mps 743 mmHg 75%
    06:00 +5°C° 0.2 mm 8 mps 743 mmHg 76%
    07:00 +5°C° 0.2 mm 8 mps 743 mmHg 77%
    08:00 +6°C° 0 mm 8 mps 743 mmHg 77%
    09:00 +6°C° 0 mm 7 mps 743 mmHg 76%
    10:00 +8°C° 0 mm 7 mps 742 mmHg 75%
    11:00 +8°C° 0 mm 7 mps 742 mmHg 73%
    12:00 +9°C° 0 mm 7 mps 741 mmHg 72%
    13:00 +10°C° 0 mm 7 mps 741 mmHg 70%
    14:00 +9°C° 0.1 mm 8 mps 740 mmHg 71%
    15:00 +9°C° 0.1 mm 8 mps 738 mmHg 73%
    16:00 +9°C° 0.1 mm 8 mps 737 mmHg 74%
    17:00 +10°C° 0.1 mm 8 mps 736 mmHg 73%
    18:00 +10°C° 0.1 mm 8 mps 736 mmHg 71%
    19:00 +10°C° 0.1 mm 8 mps 735 mmHg 69%
    20:00 +10°C° 0.1 mm 9 mps 734 mmHg 68%
    21:00 +9°C° 0.1 mm 10 mps 734 mmHg 67%
    22:00 +9°C° 0.1 mm 11 mps 733 mmHg 65%
    23:00 +8°C° 1.1 mm 12 mps 734 mmHg 71%

    24 February, Monday

    Time Temperature Precipitation Wind Pressure Humidity
    00:00 +7°C° 1.1 mm 12 mps 734 mmHg 77%
    01:00 +5°C° 1.1 mm 12 mps 734 mmHg 83%
    02:00 +4°C° 0.4 mm 12 mps 736 mmHg 78%
    03:00 +2°C° 0.4 mm 12 mps 737 mmHg 73%
    04:00 0°C° 0.4 mm 12 mps 739 mmHg 68%
    05:00 +1°C° 0 mm 11 mps 741 mmHg 70%
    06:00 -1°C° 0 mm 11 mps 742 mmHg 71%
    07:00 0°C° 0 mm 10 mps 744 mmHg 72%
    08:00 0°C° 0 mm 10 mps 745 mmHg 70%
    09:00 0°C° 0 mm 9 mps 746 mmHg 68%
    10:00 +1°C° 0 mm 9 mps 746 mmHg 65%
    11:00 +2°C° 0 mm 9 mps 746 mmHg 64%
    12:00 +2°C° 0 mm 8 mps 747 mmHg 63%
    13:00 +4°C° 0 mm 8 mps 747 mmHg 62%
    14:00 +4°C° 0 mm 7 mps 747 mmHg 62%
    15:00 +4°C° 0 mm 6 mps 746 mmHg 63%
    16:00 +3°C° 0 mm 5 mps 746 mmHg 63%
    17:00 +4°C° 0 mm 4 mps 746 mmHg 68%
    18:00 +4°C° 0 mm 2 mps 747 mmHg 73%
    19:00 +4°C° 0 mm 1 mps 747 mmHg 78%
    20:00 +3°C° 0 mm 1 mps 746 mmHg 78%
    21:00 +3°C° 0 mm 1 mps 746 mmHg 79%
    22:00 +3°C° 0 mm 1 mps 746 mmHg 79%
    23:00 +2°C° 0 mm 2 mps 745 mmHg 79%
    Show more